When you browse on this site, cookies collect data to enhance your experience and personalize the content and advertising you see.
Visit our Privacy Policy to learn more. By continuing to use the site, you agree to this use of cookies and data.
EN

Hourly Weather Smolan

Today, 7 July, Tuesday

Time Temperature Precipitation Wind Pressure Humidity
00:00 +16°C° 0.2 mm 2 mps 650 mmHg 91%
01:00 +15°C° 0.2 mm 2 mps 649 mmHg 92%
02:00 +15°C° 0.2 mm 2 mps 649 mmHg 92%
03:00 +15°C° 0 mm 1 mps 649 mmHg 92%
04:00 +15°C° 0 mm 1 mps 649 mmHg 91%
05:00 +15°C° 0 mm 1 mps 649 mmHg 91%
06:00 +16°C° 0.1 mm 1 mps 650 mmHg 87%
07:00 +19°C° 0.1 mm 1 mps 651 mmHg 83%
08:00 +21°C° 0.1 mm 1 mps 651 mmHg 79%
09:00 +22°C° 0.8 mm 1 mps 652 mmHg 75%
10:00 +23°C° 0.8 mm 1 mps 652 mmHg 71%
11:00 +24°C° 0.8 mm 2 mps 653 mmHg 67%
12:00 +24°C° 1.3 mm 1 mps 653 mmHg 66%
13:00 +24°C° 1.3 mm 1 mps 653 mmHg 66%
14:00 +24°C° 1.3 mm 1 mps 653 mmHg 66%
15:00 +24°C° 1 mm 1 mps 653 mmHg 69%
16:00 +23°C° 1 mm 1 mps 653 mmHg 72%
17:00 +23°C° 1 mm 1 mps 653 mmHg 75%
18:00 +21°C° 0.8 mm 1 mps 653 mmHg 80%
19:00 +18°C° 0.8 mm 2 mps 652 mmHg 85%
20:00 +16°C° 0.8 mm 2 mps 652 mmHg 90%
21:00 +15°C° 0.5 mm 2 mps 653 mmHg 91%
22:00 +14°C° 0.5 mm 2 mps 653 mmHg 92%
23:00 +13°C° 0.5 mm 2 mps 653 mmHg 93%

Tomorrow, 8 July, Wednesday

Time Temperature Precipitation Wind Pressure Humidity
00:00 +12°C° 0.2 mm 2 mps 653 mmHg 92%
01:00 +12°C° 0.2 mm 2 mps 654 mmHg 92%
02:00 +10°C° 0.2 mm 2 mps 654 mmHg 91%
03:00 +10°C° 0 mm 2 mps 654 mmHg 91%
04:00 +9°C° 0 mm 2 mps 654 mmHg 91%
05:00 +9°C° 0 mm 2 mps 654 mmHg 91%
06:00 +10°C° 0 mm 2 mps 655 mmHg 86%
07:00 +13°C° 0 mm 1 mps 656 mmHg 82%
08:00 +14°C° 0 mm 1 mps 657 mmHg 77%
09:00 +16°C° 0 mm 2 mps 657 mmHg 73%
10:00 +17°C° 0 mm 2 mps 658 mmHg 69%
11:00 +18°C° 0 mm 2 mps 658 mmHg 64%
12:00 +18°C° 0 mm 2 mps 658 mmHg 65%
13:00 +18°C° 0 mm 2 mps 658 mmHg 66%
14:00 +18°C° 0 mm 2 mps 658 mmHg 67%
15:00 +18°C° 0 mm 2 mps 658 mmHg 68%
16:00 +18°C° 0 mm 2 mps 658 mmHg 70%
17:00 +19°C° 0 mm 1 mps 657 mmHg 72%
18:00 +18°C° 0 mm 1 mps 657 mmHg 77%
19:00 +15°C° 0 mm 1 mps 657 mmHg 82%
20:00 +14°C° 0 mm 1 mps 657 mmHg 87%
21:00 +13°C° 0 mm 1 mps 657 mmHg 87%
22:00 +13°C° 0 mm 1 mps 657 mmHg 88%
23:00 +12°C° 0 mm 1 mps 657 mmHg 89%

Day after tomorrow, 9 July, Thursday

Time Temperature Precipitation Wind Pressure Humidity
00:00 +12°C° 0 mm 1 mps 657 mmHg 90%
01:00 +11°C° 0 mm 1 mps 657 mmHg 90%
02:00 +11°C° 0 mm 1 mps 657 mmHg 91%
03:00 +11°C° 0 mm 1 mps 657 mmHg 91%
04:00 +10°C° 0 mm 1 mps 657 mmHg 91%
05:00 +10°C° 0 mm 1 mps 657 mmHg 91%
06:00 +12°C° 0 mm 1 mps 658 mmHg 84%
07:00 +14°C° 0 mm 1 mps 658 mmHg 77%
08:00 +16°C° 0 mm 1 mps 659 mmHg 70%
09:00 +18°C° 0 mm 2 mps 660 mmHg 63%
10:00 +19°C° 0 mm 2 mps 660 mmHg 57%
11:00 +21°C° 0 mm 3 mps 660 mmHg 50%
12:00 +21°C° 0 mm 3 mps 660 mmHg 49%
13:00 +21°C° 0 mm 3 mps 660 mmHg 48%
14:00 +22°C° 0 mm 3 mps 660 mmHg 47%
15:00 +21°C° 0 mm 3 mps 660 mmHg 48%
16:00 +21°C° 0 mm 3 mps 659 mmHg 49%
17:00 +21°C° 0 mm 2 mps 659 mmHg 50%
18:00 +18°C° 0 mm 2 mps 658 mmHg 57%
19:00 +16°C° 0 mm 2 mps 658 mmHg 64%
20:00 +14°C° 0 mm 1 mps 657 mmHg 71%
21:00 +13°C° 0 mm 1 mps 657 mmHg 71%
22:00 +12°C° 0 mm 1 mps 657 mmHg 71%
23:00 +12°C° 0 mm 1 mps 657 mmHg 71%

10 July, Friday

Time Temperature Precipitation Wind Pressure Humidity
00:00 +12°C° 0 mm 1 mps 657 mmHg 72%
01:00 +11°C° 0 mm 1 mps 657 mmHg 73%
02:00 +11°C° 0 mm 1 mps 657 mmHg 74%
03:00 +10°C° 0 mm 2 mps 657 mmHg 76%
04:00 +10°C° 0 mm 2 mps 657 mmHg 78%
05:00 +10°C° 0 mm 2 mps 656 mmHg 80%
06:00 +13°C° 0 mm 2 mps 657 mmHg 74%
07:00 +15°C° 0 mm 2 mps 658 mmHg 68%
08:00 +18°C° 0 mm 2 mps 659 mmHg 62%
09:00 +19°C° 0 mm 2 mps 659 mmHg 58%
10:00 +20°C° 0 mm 3 mps 659 mmHg 54%
11:00 +21°C° 0 mm 3 mps 660 mmHg 50%
12:00 +22°C° 0 mm 3 mps 659 mmHg 49%
13:00 +22°C° 0 mm 3 mps 659 mmHg 49%
14:00 +24°C° 0 mm 3 mps 659 mmHg 48%
15:00 +22°C° 0 mm 3 mps 659 mmHg 51%
16:00 +22°C° 0 mm 3 mps 658 mmHg 54%
17:00 +21°C° 0 mm 3 mps 658 mmHg 57%
18:00 +19°C° 0 mm 2 mps 657 mmHg 66%
19:00 +17°C° 0 mm 2 mps 657 mmHg 75%
20:00 +15°C° 0 mm 1 mps 656 mmHg 84%
21:00 +14°C° 0 mm 1 mps 656 mmHg 85%
22:00 +13°C° 0 mm 1 mps 656 mmHg 85%
23:00 +12°C° 0 mm 1 mps 656 mmHg 86%

11 July, Saturday

Time Temperature Precipitation Wind Pressure Humidity
00:00 +12°C° 0 mm 1 mps 656 mmHg 87%
01:00 +12°C° 0 mm 1 mps 656 mmHg 88%
02:00 +12°C° 0 mm 1 mps 655 mmHg 88%
03:00 +11°C° 0 mm 1 mps 655 mmHg 89%
04:00 +11°C° 0 mm 1 mps 655 mmHg 89%
05:00 +11°C° 0 mm 1 mps 655 mmHg 89%
06:00 +13°C° 0 mm 1 mps 656 mmHg 81%
07:00 +15°C° 0 mm 1 mps 657 mmHg 72%
08:00 +19°C° 0 mm 1 mps 657 mmHg 64%
09:00 +19°C° 0 mm 2 mps 658 mmHg 59%
10:00 +21°C° 0 mm 2 mps 658 mmHg 55%
11:00 +23°C° 0 mm 2 mps 659 mmHg 50%
12:00 +24°C° 0 mm 2 mps 658 mmHg 51%
13:00 +24°C° 0 mm 2 mps 658 mmHg 52%
14:00 +24°C° 0 mm 3 mps 658 mmHg 53%
15:00 +24°C° 0 mm 2 mps 658 mmHg 56%
16:00 +23°C° 0 mm 2 mps 657 mmHg 59%
17:00 +23°C° 0 mm 2 mps 657 mmHg 62%
18:00 +20°C° 0 mm 2 mps 656 mmHg 71%
19:00 +19°C° 0 mm 1 mps 656 mmHg 79%
20:00 +16°C° 0 mm 1 mps 655 mmHg 88%
21:00 +15°C° 0 mm 1 mps 656 mmHg 88%
22:00 +15°C° 0 mm 1 mps 656 mmHg 88%
23:00 +14°C° 0 mm 1 mps 656 mmHg 88%

12 July, Sunday

Time Temperature Precipitation Wind Pressure Humidity
00:00 +14°C° 0 mm 1 mps 656 mmHg 88%
01:00 +14°C° 0 mm 1 mps 655 mmHg 88%
02:00 +13°C° 0 mm 1 mps 655 mmHg 87%
03:00 +13°C° 0 mm 1 mps 655 mmHg 88%
04:00 +13°C° 0 mm 1 mps 655 mmHg 89%
05:00 +13°C° 0 mm 2 mps 655 mmHg 89%
06:00 +15°C° 0 mm 2 mps 656 mmHg 83%
07:00 +17°C° 0 mm 2 mps 657 mmHg 77%
08:00 +19°C° 0 mm 2 mps 658 mmHg 71%
09:00 +20°C° 0 mm 2 mps 658 mmHg 66%
10:00 +23°C° 0 mm 2 mps 659 mmHg 60%
11:00 +24°C° 0 mm 3 mps 659 mmHg 55%
12:00 +24°C° 0 mm 3 mps 659 mmHg 55%
13:00 +25°C° 0 mm 3 mps 659 mmHg 54%
14:00 +25°C° 0 mm 3 mps 659 mmHg 53%
15:00 +25°C° 0 mm 3 mps 658 mmHg 55%
16:00 +24°C° 0 mm 3 mps 658 mmHg 57%
17:00 +24°C° 0 mm 3 mps 658 mmHg 59%
18:00 +21°C° 0.1 mm 2 mps 657 mmHg 68%
19:00 +19°C° 0.1 mm 2 mps 657 mmHg 76%
20:00 +18°C° 0.1 mm 1 mps 657 mmHg 84%
21:00 +16°C° 0.1 mm 1 mps 657 mmHg 86%
22:00 +16°C° 0.1 mm 1 mps 657 mmHg 88%
23:00 +15°C° 0.1 mm 1 mps 657 mmHg 91%
Show more